Location: Unspecified
(52.4292°N, 19.3359°E)
Time: 09:38:08
(UTC+02:00)

Envisat - Visible Passes

Search period start: 19 April 2025 00:00
Search period end: 29 April 2025 00:00
Orbit: 761 x 763 km, 98.3° (Epoch: 18 April)

Date Brightness Start Highest point End Pass type
(mag) Time Alt. Az. Time Alt. Az. Time Alt. Az.
19 Apr 4.7 02:48:32 10° NE 02:52:49 27° E 02:57:04 10° SSE visible
19 Apr 3.2 04:27:07 10° N 04:32:04 54° WNW 04:36:59 10° SW visible
20 Apr 5.5 02:12:08 10° NE 02:14:40 14° E 02:17:09 10° ESE visible
20 Apr 3.1 03:49:21 10° NNE 03:54:27 80° ESE 03:59:12 12° SSW visible
21 Apr 4.1 03:11:50 10° NNE 03:16:38 40° E 03:21:11 11° SSE visible
21 Apr 3.8 04:50:56 10° N 04:55:33 36° WNW 05:00:09 10° SW visible
22 Apr 5.1 02:34:48 10° NE 02:38:37 21° E 02:42:25 10° SE visible
22 Apr 3.0 04:13:00 10° N 04:18:04 69° WNW 04:23:05 10° SSW visible
23 Apr 5.7 01:59:46 10° ENE 02:00:22 10° E 02:00:59 10° E visible
23 Apr 3.4 03:35:19 10° NNE 03:40:23 62° ESE 03:45:17 11° S visible
24 Apr 4.5 02:57:57 10° NNE 03:02:29 32° E 03:06:59 10° SSE visible
24 Apr 3.5 04:36:45 10° N 04:41:35 45° WNW 04:46:24 10° SW visible
25 Apr 5.4 02:21:13 10° NE 02:24:23 16° E 02:27:32 10° SE visible
25 Apr 3.0 03:58:55 10° NNE 04:04:01 87° WNW 04:09:06 10° SSW visible
26 Apr 3.8 03:21:21 10° NNE 03:26:16 48° E 03:31:10 10° S visible
27 Apr 4.8 02:44:08 10° NE 02:48:18 25° E 02:52:26 10° SSE visible
27 Apr 3.2 04:22:37 10° N 04:27:36 58° WNW 04:32:33 10° SSW visible
28 Apr 5.5 02:07:57 10° ENE 02:10:07 13° E 02:12:16 10° ESE visible
28 Apr 3.2 03:44:52 10° NNE 03:49:58 74° ESE 03:55:02 10° S visible
